Hourly Data Report for September 11, 2017

All times are specified in Local Standard Time (LST). Add 1 hour to adjust for Daylight Saving Time where and when it is observed.

MONCTON INTL A
NEW BRUNSWICK

46°06'44.000" N
64°40'43.000" W
70.70 m
8103201
71705
YQM

Download Data

Hourly Data (September 2017)
Hourly Data Report for September 11, 2017
Temp Definition
°C
Dew Point Temp Definition
°C
Rel Hum Definition
%
Wind Dir Definition
10's deg

Wind Spd Definition
km/h
Visibility Definition
km
Stn Press Definition
kPa
Hmdx Definition


Wind Chill Definition


Weather Definition


TIME
00:00 Legend Double Dagger 11.8 9.1 83 24 7 24.1 101.05     LegendNANA
01:00 Legend Double Dagger 12.8 8.6 75 29 11 24.1 101.01     LegendNANA
02:00 Legend Double Dagger 11.4 9.8 90 30 17 16.1 101.01     Rain
03:00 Legend Double Dagger 11.3 10.3 94 31 25 12.9 100.94     Rain
04:00 Legend Double Dagger 11.3 10.6 95 30 13 19.3 100.91     Rain
05:00 Legend Double Dagger 11.5 10.9 96 29 12 16.1 100.91     Rain
06:00 Legend Double Dagger 11.4 11.0 97 27 16 4.8 100.92     Moderate Rain,Fog
07:00 Legend Double Dagger 11.9 11.2 96 25 4 24.1 100.91     Rain
08:00 Legend Double Dagger 12.1 11.4 96 25 16 24.1 100.91     Rain
09:00 Legend Double Dagger 12.5 11.5 94 30 13 32.2 100.90     LegendNANA
10:00 Legend Double Dagger 14.1 12.4 90 34 23 24.1 100.93     LegendNANA
11:00 Legend Double Dagger 14.9 12.7 86 34 25 24.1 100.92     Cloudy
12:00 Legend Double Dagger 15.7 12.4 81 35 31 24.1 100.87     LegendNANA
13:00 Legend Double Dagger 17.4 12.7 73 35 24 24.1 100.80     LegendNANA
14:00 Legend Double Dagger 17.4 11.1 66 35 33 24.1 100.79     Mainly Clear
15:00 Legend Double Dagger 17.8 10.3 61 35 41 24.1 100.73     LegendNANA
16:00 Legend Double Dagger 17.7 10.7 63 34 32 24.1 100.69     LegendNANA
17:00 Legend Double Dagger 16.3 10.8 70 1 23 24.1 100.69     Mainly Clear
18:00 Legend Double Dagger 14.8 10.9 78 35 22 24.1 100.66     LegendNANA
19:00 Legend Double Dagger 13.1 11.1 87 34 16 24.1 100.66     LegendNANA
20:00 Legend Double Dagger 11.7 10.6 93 36 13 24.1 100.67     Mainly Clear
21:00 Legend Double Dagger 11.9 10.5 91 34 9 24.1 100.65     LegendNANA
22:00 Legend Double Dagger 10.9 10.1 95 32 5 24.1 100.63     LegendNANA
23:00 Legend Double Dagger 10.2 9.6 96 34 7 24.1 100.63     Mainly Clear

Notes on Data Quality.

Legend

  • E = Estimated
  • M = Missing
  • NA = Not Available
  • ‡ = Partner data that is not subject to review by the National Climate Archives
Date modified: